{"data":{"norad_id":53485,"epoch":"2026-05-25T02:13:06.313152Z","epoch_age_seconds":70216,"freshness":"FRESH","line1":"1 53485U 22099W   26145.09243418  .00000838  00000+0  62100-4 0  9997","line2":"2 53485  97.4493 265.0642 0001553 158.7097 201.4195 15.05651740207475","mean_motion":15.0565174,"eccentricity":0.0001553,"inclination_deg":97.4493,"raan_deg":265.0642,"arg_perigee_deg":158.7097,"mean_anomaly_deg":201.4195,"bstar":6.21e-5,"rev_number":20747,"period_min":95.639646389941,"perigee_km":548.42995383731,"apogee_km":550.5816796962,"semimajor_km":6927.6428167668,"source":"CELESTRAK","updated_at":"2026-05-25T13:38:17.433670Z"}}